Regional Weather Roundup
Issued by NWS

Home | Current Version | Previous Version | Graphics & Text | Print | Product List | Glossary On
Versions: 1 2 3 4 5 6 7 8 9 10 11 12 13 14 15 16 17 18 19 20 21 22 23 24 25 26 27 28 29 30 31 32 33 34 35 36 37 38 39 40 41 42 43 44 45 46 47 48 49 50
000
ASUS43 KLMK 241302
RWRKY
KENTUCKY REGIONAL WEATHER ROUNDUP
NATIONAL WEATHER SERVICE LOUISVILLE KY
800 AM EST FRI FEB 24 2017

NOTE "FAIR" INDICATES FEW OR NO CLOUDS BELOW 12,000 FEET
WITH NO SIGNIFICANT WEATHER AND/OR OBSTRUCTIONS TO VISIBILITY.

KYZ001>023-026-027-061>063-070>075-241400-
WESTERN AND SOUTH CENTRAL KENTUCKY

CITY           SKY/WX    TMP DP  RH WIND       PRES   REMARKS
PADUCAH        CLEAR     63  55  75 S13G21    29.60F
HENDERSON      CLEAR     63  54  72 S15       29.61S
OWENSBORO      CLEAR     61  56  83 S13       29.64F
HOPKINSVILLE   CLEAR     64  57  78 S9        29.68S
BOWLING GREEN  PTCLDY    63  56  78 S10       29.73R
GLASGOW        NOT AVBL
$$

KYZ024-025-028>034-038-045-046-053-241400-
NORTH CENTRAL KENTUCKY

CITY           SKY/WX    TMP DP  RH WIND       PRES   REMARKS
LOUISVILLE/SDF PTCLDY    63  54  72 S16       29.68F
LOUISVILLE/LOU PTCLDY    63  54  72 S9G18     29.68F
FORT KNOX      MOCLDY    61  55  81 SE16      29.68S
$$

KYZ035>037-039>044-047>052-055>060-089>105-241400-
NORTHEAST KENTUCKY

CITY           SKY/WX    TMP DP  RH WIND       PRES   REMARKS
LEXINGTON      PTCLDY    60  50  69 S13       29.75S
COVINGTON      PTCLDY    60  53  77 S15       29.70S
FRANKFORT      CLOUDY    59  50  72 S9        29.72S
$$

KYZ054-064>069-076>088-106>120-241400-
SOUTHEAST KENTUCKY

CITY           SKY/WX    TMP DP  RH WIND       PRES   REMARKS
JACKSON        CLEAR     57  49  74 VRB3      29.81S
LONDON         CLEAR     60  47  61 S9        29.80F
SOMERSET       CLEAR     59  48  67 S9        29.81R
MIDDLESBORO    CLEAR     47  47 100 CALM      29.86S
MONTICELLO     SUNNY     63  51  65 SE7       29.81R
$$




USA.gov is the U.S. government's official web portal to all federal, state and local government web resources and services.